{"data":{"norad_id":67000,"epoch":"2026-05-25T03:58:46.995744Z","epoch_age_seconds":71405,"freshness":"FRESH","line1":"1 67000U 25292H   26145.16582171  .00006537  00000+0  43588-3 0  9993","line2":"2 67000  97.6377 221.4402 0016176  85.4294 274.8780 15.07297702 24868","mean_motion":15.07297702,"eccentricity":0.0016176,"inclination_deg":97.6377,"raan_deg":221.4402,"arg_perigee_deg":85.4294,"mean_anomaly_deg":274.878,"bstar":0.00043588,"rev_number":2486,"period_min":95.535208345989,"perigee_km":533.26360071,"apogee_km":555.65959168842,"semimajor_km":6922.5985961992,"source":"CELESTRAK","updated_at":"2026-05-25T13:38:06.639557Z"}}